Location: Caseificio
(44.7500°N, 11.0500°E)
Time: 21:48:58
(UTC+00:00)

CZ-2D R/B - Pass Details

Date: 26 May 2022
Orbit: 791 x 845 km, 98.7° (Epoch: 29 June)

Event Time Altitude Azimuth Distance (km) Brightness Sun altitude
Rises 02:33:06 0° 359° (N) 3,381 6.0 -9.9°
Reaches altitude 10° 02:36:17 10° 340° (NNW) 2,432 4.9 -9.5°
Maximum altitude 02:39:34 17° 302° (WNW) 1,982 4.0 -9.0°
Drops below altitude 10° 02:42:49 10° 264° (W) 2,401 4.1 -8.6°
Enters shadow 02:43:49 - 256° (WSW) 2,660 4.3 -8.5°
